Погода в Дханбаде

Индия     23°43′36″N   86°25′52″E
темп.,
°C
ветер,
м/с
пор.,
м/с
влажн.,
%
обл.,
%
осадки,
мм/ч
давл.,
гПа
погр.,
м
21 апреля, ср
ср2123:30+29ю37270 0.0 1006118
02:30+27ююз34510 0.0 100573
05:30+26вюв22595 0.0 100642
08:30+35юз342579 0.0 1008654
11:30+41юз351499 0.0 10064188
14:30+40сз4515100 0.1 10032456
17:30+39сз351478 0.1 1003720
20:30+34юв3622100 0.1 1006226
22 апреля, чт
чт2223:30+30св4636100 0.0 1007197
02:30+27в234966 0.0 100669
05:30+27с1152100 0.0 100765
08:30+34ссз333298 0.0 1009790
11:30+39с5418100 0.0 10073743
14:30+40ссз6614100 0.0 10044327
17:30+35ссв2319100 0.3 1004210
20:30+32зсз222299 0.0 100758
23 апреля, пт
пт2323:30+29ююв34262 0.0 100767
02:30+27з22370 0.0 100639
05:30+27з112810 0.0 100826
08:30+36ссз34125 0.0 10091026
11:30+40сз4794 0.0 10073777
14:30+41сз35622 0.0 10034487
17:30+39ссз56620 0.0 10031185
20:30+34ссз36993 0.0 1006123
24 апреля, сб
сб2423:30+31ююв12110 0.0 100525
02:30+29зюз23140 0.0 100542
05:30+28сз231312 0.0 100640
08:30+38зюз3480 0.0 1008554
11:30+42з35666 0.0 10064803
14:30+43зюз3655 0.0 10025533
17:30+42зюз24645 0.0 10011334
20:30+35св11830 0.0 100446
25 апреля, вс
вс2523:30+30ю363575 0.0 1005111
02:30+31зюз2326100 0.0 100353
05:30+29зюз332199 0.0 100452
08:30+38сз248100 0.0 1007545
11:30+43сз355100 0.0 10054338
14:30+44сз456100 0.0 10015386
17:30+42с34699 0.0 10011278
20:30+36с36959 0.0 1003114